Location: Eisingen in Unterfranken
(49.7591°N, 9.8347°E)
Time: 09:13:21
(UTC+01:00)

Envisat - Pass Details

Date: 28 November 2022
Orbit: 763 x 765 km, 98.2° (Epoch: 04 February)

Event Time Altitude Azimuth Distance (km) Brightness Sun altitude
Rises 03:26:42 0° 26° (NNE) 3,246 6.7 -41.9°
Reaches altitude 10° 03:29:38 10° 43° (NE) 2,314 6.0 -41.4°
Enters shadow 03:31:25 16° 61° (ENE) 1,902 5.6 -41.2°
